timestamp,surface_pressure_avg,surface_temp_avg,battery_voltage,lat,long
2021-11-28 00:09:00+00:00,251.8447,8.66,12.65,47.84626,-54.09684
2021-11-28 00:19:00+00:00,249.5697,8.66,12.65,47.84626,-54.09684
2021-11-28 00:29:00+00:00,242.4014,8.66,12.65,47.84626,-54.09684
2021-11-28 00:39:00+00:00,245.4981,8.68,12.65,47.84626,-54.09684
2021-11-28 00:49:00+00:00,254.2164,8.68,12.65,47.84626,-54.09684
2021-11-28 00:59:00+00:00,250.9897,8.68,12.65,47.84626,-54.09684
2021-11-28 01:09:00+00:00,244.9947,8.7,12.65,47.84626,-54.09684
2021-11-28 01:19:00+00:00,251.8431,8.7,12.65,47.84626,-54.09684
2021-11-28 01:29:00+00:00,253.2648,8.7,12.65,47.84626,-54.09684
2021-11-28 01:39:00+00:00,246.4947,8.7,12.65,47.84626,-54.09684
2021-11-28 01:49:00+00:00,243.8531,8.7,12.65,47.84626,-54.09684
2021-11-28 01:59:00+00:00,250.2147,8.7,12.65,47.84626,-54.09684
2021-11-28 02:09:00+00:00,252.7148,8.7,12.65,47.84626,-54.09684
2021-11-28 02:19:01+00:00,254.543,8.7,12.65,47.84626,-54.09684
2021-11-28 02:29:01+00:00,256.1798,8.7,12.65,47.84626,-54.09684
2021-11-28 02:39:01+00:00,257.5697,8.7,12.65,47.84626,-54.09684
2021-11-28 02:49:01+00:00,261.7231,8.7,12.65,47.84626,-54.09684
2021-11-28 02:59:01+00:00,267.6248,8.7,12.65,47.84626,-54.09684
2021-11-28 03:09:01+00:00,267.1364,8.7,12.65,47.84626,-54.09684
2021-11-28 03:19:00+00:00,269.3897,8.7,12.65,47.84626,-54.09684
2021-11-28 03:29:00+00:00,279.2181,8.7,12.65,47.84626,-54.09684
2021-11-28 03:39:00+00:00,287.0514,8.7,12.65,47.84626,-54.09684
2021-11-28 03:49:00+00:00,284.4797,8.7,12.65,47.84626,-54.09684
2021-11-28 03:59:00+00:00,290.0613,8.7,12.65,47.84626,-54.09684
2021-11-28 04:09:00+00:00,306.3829,8.7,12.65,47.84626,-54.09684
2021-11-28 04:19:00+00:00,315.093,8.7,12.65,47.84626,-54.09684
2021-11-28 04:29:00+00:00,308.3313,8.7,12.65,47.84626,-54.09684
2021-11-28 04:39:00+00:00,310.0813,8.7,12.65,47.84626,-54.09684
2021-11-28 04:49:00+00:00,321.1897,8.7,12.65,47.84626,-54.09684
2021-11-28 04:59:00+00:00,325.0031,8.7,12.65,47.84626,-54.09684
2021-11-28 05:09:00+00:00,318.2614,8.7,12.65,47.84626,-54.09684
2021-11-28 05:19:01+00:00,317.643,8.7,12.65,47.84626,-54.09684
2021-11-28 05:29:01+00:00,325.698,8.7,12.65,47.84626,-54.09684
2021-11-28 05:39:01+00:00,326.923,8.7,12.65,47.84626,-54.09684
2021-11-28 05:49:01+00:00,324.353,8.7,12.65,47.84626,-54.09684
2021-11-28 05:59:01+00:00,323.6329,8.7,12.65,47.84626,-54.09684
2021-11-28 06:09:01+00:00,326.4329,8.7,12.65,47.84626,-54.09684
2021-11-28 06:19:00+00:00,325.988,8.7,12.65,47.84626,-54.09684
2021-11-28 06:29:00+00:00,316.7797,8.7,12.65,47.84626,-54.09684
2021-11-28 06:39:00+00:00,312.5797,8.7,12.65,47.84626,-54.09684
2021-11-28 06:49:00+00:00,313.9614,8.7,12.65,47.84626,-54.09684
2021-11-28 06:59:00+00:00,314.4863,8.7,12.65,47.84626,-54.09684
2021-11-28 07:09:00+00:00,307.783,8.7,12.65,47.84626,-54.09684
2021-11-28 07:19:00+00:00,303.4364,8.7,12.65,47.84626,-54.09684
2021-11-28 07:29:00+00:00,302.3547,8.7,12.65,47.84626,-54.09684
2021-11-28 07:39:00+00:00,297.953,8.7,12.65,47.84626,-54.09684
2021-11-28 07:49:00+00:00,295.0081,8.7,12.65,47.84626,-54.09684
2021-11-28 07:59:00+00:00,292.3246,8.7,12.65,47.84626,-54.09684
2021-11-28 08:09:00+00:00,288.4813,8.7,12.65,47.84626,-54.09684
2021-11-28 08:19:00+00:00,283.8047,8.7,12.65,47.84626,-54.09684
2021-11-28 08:29:00+00:00,282.3064,8.7,12.65,47.84626,-54.09684
2021-11-28 08:39:00+00:00,275.8114,8.69,12.65,47.84626,-54.09684
2021-11-28 08:49:00+00:00,271.4031,8.64,12.65,47.84626,-54.09684
2021-11-28 08:59:00+00:00,270.8314,8.64,12.65,47.84626,-54.09684
2021-11-28 09:09:00+00:00,268.4864,8.67,12.65,47.84626,-54.09684
2021-11-28 09:19:00+00:00,256.5914,8.69,12.65,47.84626,-54.09684
2021-11-28 09:29:00+00:00,250.7381,8.68,12.65,47.84626,-54.09684
2021-11-28 09:39:00+00:00,254.5681,8.68,12.65,47.84626,-54.09684
2021-11-28 09:49:00+00:00,252.9615,8.68,12.65,47.84626,-54.09684
2021-11-28 09:59:00+00:00,243.0048,8.67,12.65,47.84626,-54.09684
2021-11-28 10:09:00+00:00,238.8781,8.67,12.65,47.84626,-54.09684
2021-11-28 10:19:00+00:00,241.9081,8.67,12.65,47.84626,-54.09684
2021-11-28 10:29:00+00:00,241.8414,8.67,12.65,47.84626,-54.09684
2021-11-28 10:39:00+00:00,236.4881,8.68,12.65,47.84626,-54.09684
2021-11-28 10:49:00+00:00,232.3631,8.69,12.65,47.84626,-54.09684
2021-11-28 10:59:00+00:00,236.9298,8.69,12.65,47.84626,-54.09684
2021-11-28 11:09:00+00:00,237.7814,8.68,12.65,47.84626,-54.09684
2021-11-28 11:19:00+00:00,233.9448,8.68,12.57,47.84626,-54.09684
2021-11-28 11:29:00+00:00,236.0464,8.69,12.57,47.84626,-54.09684
2021-11-28 11:39:00+00:00,243.2814,8.68,12.57,47.84626,-54.09684
2021-11-28 11:49:00+00:00,244.0114,8.67,12.57,47.84626,-54.09684
2021-11-28 11:59:00+00:00,242.1598,8.67,12.57,47.84626,-54.09684
2021-11-28 12:09:00+00:00,243.8214,8.67,12.57,47.84626,-54.09684
2021-11-28 12:19:01+00:00,243.5448,8.67,12.65,47.84626,-54.09684
2021-11-28 12:29:01+00:00,244.5381,8.67,12.65,47.84626,-54.09684
2021-11-28 12:39:01+00:00,248.84799999999998,8.68,12.65,47.84626,-54.09684
2021-11-28 12:49:01+00:00,249.3848,8.69,12.65,47.84626,-54.09684
2021-11-28 12:59:01+00:00,245.0314,8.68,12.65,47.84626,-54.09684
2021-11-28 13:09:01+00:00,247.7981,8.68,12.65,47.84626,-54.09684
2021-11-28 13:19:00+00:00,249.3848,8.69,13.13,47.84626,-54.09684
2021-11-28 13:29:00+00:00,245.6914,8.69,13.13,47.84626,-54.09684
2021-11-28 13:39:00+00:00,244.8914,8.69,13.13,47.84626,-54.09684
2021-11-28 13:49:00+00:00,253.0114,8.7,13.13,47.84626,-54.09684
2021-11-28 13:59:00+00:00,255.2464,8.7,13.13,47.84626,-54.09684
2021-11-28 14:09:00+00:00,247.5481,8.7,13.13,47.84626,-54.09684
2021-11-28 14:19:01+00:00,249.7048,8.7,14.24,47.84626,-54.09684
2021-11-28 14:29:01+00:00,263.2581,8.7,14.24,47.84626,-54.09684
2021-11-28 14:39:01+00:00,267.9648,8.7,14.24,47.84626,-54.09684
2021-11-28 14:49:01+00:00,267.6614,8.7,14.24,47.84626,-54.09684
2021-11-28 14:59:01+00:00,272.7164,8.7,14.24,47.84626,-54.09684
2021-11-28 15:09:01+00:00,280.5347,8.7,14.24,47.84626,-54.09684
2021-11-28 15:19:01+00:00,282.1063,8.7,14.16,47.84626,-54.09684
2021-11-28 15:29:01+00:00,285.5164,8.7,14.16,47.84626,-54.09684
2021-11-28 15:39:01+00:00,290.993,8.7,14.16,47.84626,-54.09684
2021-11-28 15:49:01+00:00,296.6247,8.7,14.16,47.84626,-54.09684
2021-11-28 15:59:01+00:00,300.8314,8.7,14.16,47.84626,-54.09684
2021-11-28 16:09:01+00:00,309.048,8.7,14.16,47.84626,-54.09684
2021-11-28 16:19:00+00:00,312.5613,8.7,14.48,47.84626,-54.09684
2021-11-28 16:29:00+00:00,313.0963,8.7,14.48,47.84626,-54.09684
2021-11-28 16:39:00+00:00,321.6147,8.7,14.48,47.84626,-54.09684
2021-11-28 16:49:00+00:00,330.6747,8.7,14.48,47.84626,-54.09684
2021-11-28 16:59:00+00:00,323.9014,8.7,14.48,47.84626,-54.09684
2021-11-28 17:09:00+00:00,325.5913,8.7,14.48,47.84626,-54.09684
2021-11-28 17:19:00+00:00,338.05800000000005,8.7,14.24,47.84626,-54.09684
2021-11-28 17:29:00+00:00,340.9896,8.7,14.24,47.84626,-54.09684
2021-11-28 17:39:00+00:00,332.1546,8.7,14.24,47.84626,-54.09684
2021-11-28 17:49:00+00:00,335.4846,8.7,14.24,47.84626,-54.09684
2021-11-28 17:59:00+00:00,343.5846,8.7,14.24,47.84626,-54.09684
2021-11-28 18:09:00+00:00,336.2247,8.7,14.24,47.84626,-54.09684
2021-11-28 18:19:00+00:00,332.9464,8.7,13.92,47.84626,-54.09684
2021-11-28 18:29:00+00:00,340.3263,8.7,13.92,47.84626,-54.09684
2021-11-28 18:39:00+00:00,333.923,8.7,13.92,47.84626,-54.09684
2021-11-28 18:49:00+00:00,328.3880000000001,8.7,13.92,47.84626,-54.09684
2021-11-28 18:59:00+00:00,332.5181,8.7,13.92,47.84626,-54.09684
2021-11-28 19:09:00+00:00,330.0897,8.7,13.92,47.84626,-54.09684
2021-11-28 19:19:00+00:00,317.9763,8.7,13.53,47.84626,-54.09684
2021-11-28 19:29:00+00:00,319.2047,8.7,13.53,47.84626,-54.09684
2021-11-28 19:39:00+00:00,321.9213,8.7,13.53,47.84626,-54.09684
2021-11-28 19:49:00+00:00,313.843,8.69,13.53,47.84626,-54.09684
2021-11-28 19:59:00+00:00,310.8864,8.69,13.53,47.84626,-54.09684
2021-11-28 20:09:00+00:00,315.088,8.69,13.53,47.84626,-54.09684
2021-11-28 20:19:01+00:00,307.558,8.69,13.13,47.84626,-54.09684
2021-11-28 20:29:01+00:00,298.5264,8.69,13.13,47.84626,-54.09684
2021-11-28 20:39:01+00:00,303.3713,8.69,13.13,47.84626,-54.09684
2021-11-28 20:49:01+00:00,305.3263,8.69,13.13,47.84626,-54.09684
2021-11-28 20:59:01+00:00,293.8014,8.65,13.13,47.84626,-54.09684
2021-11-28 21:09:01+00:00,290.433,8.6,13.13,47.84626,-54.09684
2021-11-28 21:19:00+00:00,292.1597,8.6,12.81,47.84626,-54.09684
2021-11-28 21:29:00+00:00,283.6247,8.6,12.81,47.84626,-54.09684
2021-11-28 21:39:00+00:00,276.1063,8.6,12.81,47.84626,-54.09684
2021-11-28 21:49:00+00:00,280.998,8.65,12.81,47.84626,-54.09684
2021-11-28 21:59:00+00:00,278.1764,8.66,12.81,47.84626,-54.09684
2021-11-28 22:09:00+00:00,266.0414,8.7,12.81,47.84626,-54.09684
2021-11-28 22:19:00+00:00,264.0047,8.7,12.73,47.84626,-54.09684
2021-11-28 22:29:00+00:00,267.9998,8.7,12.73,47.84626,-54.09684
2021-11-28 22:39:00+00:00,258.9998,8.7,12.73,47.84626,-54.09684
2021-11-28 22:49:00+00:00,249.8914,8.7,12.73,47.84626,-54.09684
2021-11-28 22:59:00+00:00,251.7781,8.7,12.73,47.84626,-54.09684
2021-11-28 23:09:00+00:00,251.0098,8.7,12.73,47.84626,-54.09684
2021-11-28 23:19:00+00:00,241.433,8.7,12.73,47.84626,-54.09684
2021-11-28 23:29:00+00:00,235.0714,8.7,12.73,47.84626,-54.09684
2021-11-28 23:39:00+00:00,237.9297,8.7,12.73,47.84626,-54.09684
2021-11-28 23:49:00+00:00,238.6264,8.7,12.73,47.84626,-54.09684
2021-11-28 23:59:00+00:00,235.0031,8.69,12.73,47.84626,-54.09684
